CFG5FD LEBL-EDDB

Flight info

Callsign CFG5FD
Flight time N/A
Altitude 34000
Route DALIN DCT PIVUS DCT DIBER DCT ADITA DCT MAXIR DCT LUSOL DCT BODRU DCT OKTET DCT IRMAR DCT KINES DCT VANAS DCT ESOKO DCT GODRA/N0446F350 DCT LOKTA DCT TIKNI T279 TAMEB T278 KLF KLF1R
Aircraft A321/M-SDE3FGHIRWY/LB1

Departure

Time 2026-04-28 17:18
Airport Josep Tarradellas Barcelona-El Prat Airport (LEBL)

Arrival

Time N/A
Airport Berlin Brandenburg Airport (EDDB)
Time Latitude Longitude Altitude Speed Heading
2026-04-28 16:32 41.29151 2.07950 20 ft 0 kts 155°
2026-04-28 17:06 41.29166 2.07940 18 ft 4 kts 155°
2026-04-28 17:06 41.29190 2.07924 22 ft 4 kts 146°
2026-04-28 17:06 41.29214 2.07870 18 ft 3 kts 70°
2026-04-28 17:07 41.29210 2.07859 18 ft 0 kts 66°
2026-04-28 17:10 41.29211 2.07859 18 ft 1 kts 66°
2026-04-28 17:11 41.29226 2.07907 20 ft 11 kts 66°
2026-04-28 17:11 41.29263 2.08014 18 ft 12 kts 65°
2026-04-28 17:11 41.29297 2.08113 18 ft 11 kts 65°
2026-04-28 17:11 41.29328 2.08202 18 ft 12 kts 65°
2026-04-28 17:12 41.29369 2.08337 18 ft 17 kts 83°
2026-04-28 17:12 41.29298 2.08420 19 ft 14 kts 154°
2026-04-28 17:12 41.29216 2.08471 19 ft 13 kts 155°
2026-04-28 17:12 41.29109 2.08532 16 ft 20 kts 158°
2026-04-28 17:13 41.28987 2.08607 17 ft 18 kts 154°
2026-04-28 17:13 41.28882 2.08677 18 ft 16 kts 141°
2026-04-28 17:13 41.28902 2.08839 18 ft 24 kts 64°
2026-04-28 17:13 41.28970 2.09044 19 ft 24 kts 65°
2026-04-28 17:14 41.29037 2.09236 19 ft 22 kts 65°
2026-04-28 17:14 41.29098 2.09417 18 ft 21 kts 66°
2026-04-28 17:14 41.29155 2.09586 19 ft 19 kts 66°
2026-04-28 17:14 41.29208 2.09745 18 ft 18 kts 65°
2026-04-28 17:15 41.29259 2.09891 18 ft 17 kts 65°
2026-04-28 17:15 41.29271 2.10030 17 ft 12 kts 111°
2026-04-28 17:15 41.29262 2.10060 19 ft 0 kts 111°
2026-04-28 17:16 41.29251 2.10099 17 ft 10 kts 111°
2026-04-28 17:16 41.29218 2.10200 14 ft 12 kts 131°
2026-04-28 17:17 41.29166 2.10158 14 ft 11 kts 246°
2026-04-28 17:17 41.29094 2.09951 16 ft 54 kts 245°
2026-04-28 17:17 41.28841 2.09220 16 ft 117 kts 246°
2026-04-28 17:17 41.28423 2.08011 23 ft 165 kts 243°
2026-04-28 17:18 41.27860 2.06617 476 ft 170 kts 226°
2026-04-28 17:18 41.26843 2.05891 980 ft 171 kts 180°
2026-04-28 17:18 41.25640 2.05888 1460 ft 179 kts 177°
2026-04-28 17:18 41.24356 2.05887 1717 ft 190 kts 178°
2026-04-28 17:19 41.23010 2.05864 2020 ft 196 kts 179°
2026-04-28 17:19 41.21626 2.05816 2304 ft 203 kts 180°
2026-04-28 17:19 41.20175 2.05747 2501 ft 216 kts 180°
2026-04-28 17:19 41.18672 2.05698 3003 ft 216 kts 179°
2026-04-28 17:20 41.17168 2.05658 3551 ft 217 kts 179°
2026-04-28 17:20 41.16150 2.05620 3769 ft 226 kts 180°
2026-04-28 17:20 41.13978 2.05483 4240 ft 238 kts 181°
2026-04-28 17:20 41.12327 2.05396 4914 ft 236 kts 181°
2026-04-28 17:21 41.10682 2.05326 5572 ft 237 kts 181°
2026-04-28 17:21 41.09022 2.05258 6193 ft 239 kts 181°
2026-04-28 17:21 41.07341 2.05201 6705 ft 247 kts 178°
2026-04-28 17:22 41.04309 2.07581 7345 ft 277 kts 119°
2026-04-28 17:22 41.03836 2.10061 7923 ft 285 kts 88°
2026-04-28 17:22 41.04427 2.12561 8479 ft 292 kts 55°
2026-04-28 17:23 41.07356 2.16354 9667 ft 298 kts 53°
2026-04-28 17:23 41.08618 2.18557 10202 ft 304 kts 54°
2026-04-28 17:23 41.09919 2.20880 10327 ft 324 kts 54°
2026-04-28 17:23 41.11297 2.23358 10453 ft 343 kts 54°
2026-04-28 17:24 41.12751 2.25973 10581 ft 361 kts 54°
2026-04-28 17:24 41.14263 2.28683 10959 ft 369 kts 54°
2026-04-28 17:24 41.15800 2.31425 11466 ft 373 kts 53°
2026-04-28 17:24 41.17362 2.34209 11994 ft 377 kts 53°
2026-04-28 17:25 41.18940 2.37026 12523 ft 381 kts 53°
2026-04-28 17:25 41.22137 2.42741 13577 ft 390 kts 53°
2026-04-28 17:25 41.23762 2.45648 14046 ft 394 kts 53°
2026-04-28 17:26 41.25403 2.48589 14524 ft 397 kts 53°
2026-04-28 17:26 41.27055 2.51554 14986 ft 401 kts 53°
2026-04-28 17:26 41.28743 2.54584 15453 ft 404 kts 53°
2026-04-28 17:26 41.30424 2.57598 15911 ft 407 kts 53°
2026-04-28 17:27 41.32116 2.60637 16367 ft 411 kts 53°
2026-04-28 17:27 41.33818 2.63704 16830 ft 413 kts 53°
2026-04-28 17:27 41.35532 2.66793 17272 ft 416 kts 53°
2026-04-28 17:27 41.37256 2.69908 17721 ft 419 kts 53°
2026-04-28 17:28 41.38988 2.73043 18135 ft 422 kts 53°
2026-04-28 17:28 41.42497 2.79388 18888 ft 428 kts 53°
2026-04-28 17:28 41.44270 2.82592 19274 ft 430 kts 53°
2026-04-28 17:29 41.46046 2.85809 19661 ft 432 kts 53°
2026-04-28 17:29 41.47831 2.89044 20041 ft 434 kts 53°
2026-04-28 17:29 41.49623 2.92294 20418 ft 436 kts 53°
2026-04-28 17:30 41.53226 2.98852 21166 ft 440 kts 53°
2026-04-28 17:30 41.56859 3.05479 21899 ft 444 kts 53°
2026-04-28 17:30 41.58688 3.08820 22264 ft 447 kts 53°
2026-04-28 17:31 41.60524 3.12177 22626 ft 449 kts 53°
2026-04-28 17:31 41.64226 3.18949 23339 ft 453 kts 53°
2026-04-28 17:32 41.66718 3.23519 23751 ft 456 kts 53°